Dades meteomassalio
Diari Summary for Gener 2, 2017 Units:  English    Metric   Both
« Previous Day
Next Day »
Diari Semanal Mensual Anual Personalitzat
  Maxima: Minima: Mijana:
Temperatura: 34 °F 30.9 °F 32.5 °F
Rosada: 33.1 °F 29.8 °F 31.5 °F
Humitat: 96 % 95 % 96 %
Velocitat del vent: 0 mph 0 mph 0 mph
Racha vent: 0 mph - -
Vent:- - North
Pressio: 30.4 in 30.3 in -
Pluja: 0.01 in    
Historical Graphs
 
 
Tabular Data for Gener 2, 2017
Time Temperature Dew Point Pressure Wind Wind Speed Wind Gust Humidity Rainfall Rate (Hourly) solar Conditions
00:04 32.5 °F 31.3 °F 30.3 in Calm     95 % 0 in 0.0 W/m2 RA
00:09 32.5 °F 31.3 °F 30.3 in Calm     95 % 0 in 0.0 W/m2 CLR
00:14 32.7 °F 31.6 °F 30.3 in Calm     96 % 0 in 0.0 W/m2 CLR
00:19 32.7 °F 31.6 °F 30.3 in Calm     96 % 0 in 0.0 W/m2 CLR
00:24 32.7 °F 31.6 °F 30.3 in Calm     96 % 0 in 0.0 W/m2 CLR
00:29 32.7 °F 31.6 °F 30.3 in Calm     96 % 0 in 0.0 W/m2 CLR
00:34 32.7 °F 31.6 °F 30.3 in Calm     96 % 0 in 0.0 W/m2 CLR
00:39 32.7 °F 31.8 °F 30.3 in Calm     96 % 0 in 0.0 W/m2 CLR
00:44 32.7 °F 31.8 °F 30.3 in Calm     96 % 0 in 0.0 W/m2 CLR
00:49 32.7 °F 31.6 °F 30.3 in Calm     96 % 0 in 0.0 W/m2 CLR
00:54 32.7 °F 31.6 °F 30.3 in Calm     96 % 0 in 0.0 W/m2 CLR
00:59 32.7 °F 31.6 °F 30.3 in Calm     96 % 0 in 0.0 W/m2 CLR
01:04 32.7 °F 31.6 °F 30.3 in Calm     96 % 0 in 0.0 W/m2 CLR
01:09 32.5 °F 31.3 °F 30.3 in Calm     95 % 0 in 0.0 W/m2 CLR
01:14 32.5 °F 31.3 °F 30.3 in Calm     95 % 0 in 0.0 W/m2 CLR
01:19 32.5 °F 31.5 °F 30.3 in Calm     96 % 0 in 0.0 W/m2 CLR
01:24 32.5 °F 31.6 °F 30.3 in Calm     96 % 0 in 0.0 W/m2 CLR
01:29 32.5 °F 31.6 °F 30.3 in Calm     96 % 0 in 0.0 W/m2 CLR
01:34 32.5 °F 31.3 °F 30.3 in Calm     95 % 0 in 0.0 W/m2 CLR
01:40 32.5 °F 31.5 °F 30.3 in Calm     96 % 0 in 0.0 W/m2 CLR
01:45 32.5 °F 31.5 °F 30.3 in Calm     96 % 0 in 0.0 W/m2 CLR
01:50 32.5 °F 31.5 °F 30.3 in Calm     96 % 0 in 0.0 W/m2 CLR
01:55 32.5 °F 31.5 °F 30.3 in Calm     96 % 0 in 0.0 W/m2 CLR
02:00 32.5 °F 31.3 °F 30.3 in Calm     95 % 0 in 0.0 W/m2 CLR
02:05 32.5 °F 31.5 °F 30.3 in Calm     96 % 0 in 0.0 W/m2 CLR
02:10 32.5 °F 31.5 °F 30.3 in Calm     96 % 0 in 0.0 W/m2 CLR
02:15 32.5 °F 31.3 °F 30.3 in Calm     95 % 0 in 0.0 W/m2 CLR
02:20 32.5 °F 31.3 °F 30.3 in Calm     95 % 0 in 0.0 W/m2 CLR
02:25 32.5 °F 31.3 °F 30.3 in Calm     95 % 0 in 0.0 W/m2 CLR
02:30 32.5 °F 31.3 °F 30.3 in Calm     95 % 0 in 0.0 W/m2 CLR
02:35 32.5 °F 31.6 °F 30.3 in Calm     96 % 0 in 0.0 W/m2 CLR
02:40 32.5 °F 31.3 °F 30.3 in Calm     95 % 0 in 0.0 W/m2 CLR
02:45 32.7 °F 31.6 °F 30.3 in Calm     96 % 0 in 0.0 W/m2 CLR
02:50 32.7 °F 31.6 °F 30.3 in Calm     96 % 0 in 0.0 W/m2 CLR
02:55 32.7 °F 31.6 °F 30.3 in Calm     96 % 0 in 0.0 W/m2 CLR
03:00 32.7 °F 31.6 °F 30.3 in Calm     96 % 0 in 0.0 W/m2 CLR
03:05 32.7 °F 31.8 °F 30.3 in Calm     96 % 0 in 0.0 W/m2 CLR
03:10 32.9 °F 31.8 °F 30.3 in Calm     96 % 0 in 0.0 W/m2 CLR
03:15 32.7 °F 31.8 °F 30.3 in Calm     96 % 0 in 0.0 W/m2 CLR
03:20 32.7 °F 31.6 °F 30.3 in Calm     96 % 0 in 0.0 W/m2 CLR
03:25 32.7 °F 31.6 °F 30.3 in Calm     96 % 0 in 0.0 W/m2 CLR
03:30 32.7 °F 31.6 °F 30.3 in Calm     96 % 0 in 0.0 W/m2 CLR
03:35 32.7 °F 31.6 °F 30.3 in Calm     96 % 0 in 0.0 W/m2 CLR
03:40 32.7 °F 31.8 °F 30.3 in Calm     96 % 0 in 0.0 W/m2 CLR
03:45 32.7 °F 31.8 °F 30.3 in Calm     96 % 0 in 0.0 W/m2 CLR
03:50 32.9 °F 31.8 °F 30.3 in Calm     96 % 0 in 0.0 W/m2 CLR
03:55 32.7 °F 31.6 °F 30.3 in Calm     96 % 0 in 0.0 W/m2 CLR
04:00 32.5 °F 31.6 °F 30.3 in Calm     96 % 0 in 0.0 W/m2 CLR
04:05 32.5 °F 31.6 °F 30.3 in Calm     96 % 0 in 0.0 W/m2 CLR
04:10 32.5 °F 31.6 °F 30.3 in Calm     96 % 0 in 0.0 W/m2 CLR
04:15 32.5 °F 31.6 °F 30.3 in Calm     96 % 0 in 0.0 W/m2 CLR
04:20 32.5 °F 31.6 °F 30.3 in Calm     96 % 0 in 0.0 W/m2 CLR
04:25 32.5 °F 31.3 °F 30.3 in Calm     95 % 0 in 0.0 W/m2 CLR
04:30 32.5 °F 31.6 °F 30.3 in Calm     96 % 0 in 0.0 W/m2 CLR
04:35 32.5 °F 31.6 °F 30.3 in Calm     96 % 0 in 0.0 W/m2 CLR
04:40 32.5 °F 31.6 °F 30.3 in Calm     96 % 0 in 0.0 W/m2 CLR
04:45 32.5 °F 31.6 °F 30.3 in Calm     96 % 0 in 0.0 W/m2 CLR
04:50 32.5 °F 31.5 °F 30.3 in Calm     96 % 0 in 0.0 W/m2 CLR
04:55 32.5 °F 31.5 °F 30.3 in Calm     96 % 0 in 0.0 W/m2 CLR
05:00 32.5 °F 31.5 °F 30.3 in Calm     96 % 0 in 0.0 W/m2 CLR
05:05 32.5 °F 31.5 °F 30.3 in Calm     96 % 0 in 0.0 W/m2 CLR
05:10 32.5 °F 31.5 °F 30.3 in Calm     96 % 0 in 0.0 W/m2 CLR
05:15 32.5 °F 31.5 °F 30.3 in Calm     96 % 0 in 0.0 W/m2 CLR
05:20 32.5 °F 31.5 °F 30.3 in Calm     96 % 0 in 0.0 W/m2 CLR
05:25 32.5 °F 31.5 °F 30.3 in Calm     96 % 0 in 0.0 W/m2 CLR
05:30 32.4 °F 31.5 °F 30.3 in Calm     96 % 0 in 0.0 W/m2 CLR
05:35 32.4 °F 31.3 °F 30.3 in Calm     96 % 0 in 0.0 W/m2 CLR
05:40 32.2 °F 31.3 °F 30.3 in Calm     96 % 0 in 0.0 W/m2 CLR
05:45 32.2 °F 31.3 °F 30.3 in Calm     96 % 0 in 0.0 W/m2 CLR
05:50 32.2 °F 31.3 °F 30.3 in Calm     96 % 0 in 0.0 W/m2 CLR
05:55 32.2 °F 31.3 °F 30.3 in Calm     96 % 0 in 0.0 W/m2 CLR
06:00 32.2 °F 31.3 °F 30.3 in Calm     96 % 0 in 0.0 W/m2 CLR
06:05 32.2 °F 31.3 °F 30.3 in Calm     96 % 0 in 0.0 W/m2 CLR
06:10 32.2 °F 31.1 °F 30.3 in Calm     96 % 0 in 0.0 W/m2 CLR
06:15 32.2 °F 31.1 °F 30.3 in Calm     96 % 0 in 0.0 W/m2 CLR
06:20 32 °F 30.9 °F 30.3 in Calm     96 % 0 in 0.0 W/m2 CLR
06:30 32 °F 30.9 °F 30.3 in Calm     96 % 0 in 0.0 W/m2 CLR
06:35 32 °F 30.9 °F 30.3 in Calm     96 % 0 in 0.0 W/m2 CLR
06:40 32 °F 30.9 °F 30.3 in Calm     96 % 0 in 0.0 W/m2 CLR
06:45 32 °F 30.7 °F 30.3 in Calm     95 % 0 in 0.0 W/m2 CLR
06:50 32 °F 30.9 °F 30.3 in Calm     96 % 0 in 0.0 W/m2 CLR
06:55 32 °F 30.9 °F 30.3 in Calm     96 % 0 in 0.0 W/m2 CLR
07:00 31.8 °F 30.9 °F 30.3 in Calm     96 % 0 in 0.0 W/m2 CLR
07:05 31.8 °F 30.9 °F 30.3 in Calm     96 % 0 in 0.0 W/m2 CLR
07:10 31.8 °F 30.9 °F 30.3 in Calm     96 % 0 in 0.0 W/m2 CLR
07:15 31.8 °F 30.9 °F 30.3 in Calm     96 % 0 in 0.0 W/m2 CLR
07:20 31.8 °F 30.7 °F 30.3 in Calm     96 % 0 in 0.0 W/m2 CLR
07:25 31.8 °F 30.7 °F 30.3 in Calm     96 % 0 in 0.0 W/m2 CLR
07:30 31.8 °F 30.9 °F 30.3 in Calm     96 % 0 in 0.0 W/m2 CLR
07:35 31.8 °F 30.9 °F 30.3 in Calm     96 % 0 in 0.0 W/m2 CLR
07:40 31.8 °F 30.9 °F 30.3 in Calm     96 % 0 in 0.0 W/m2 CLR
07:45 31.8 °F 30.9 °F 30.3 in Calm     96 % 0 in 0.0 W/m2 CLR
07:50 31.6 °F 30.7 °F 30.3 in Calm     96 % 0 in 0.0 W/m2 CLR
07:55 31.6 °F 30.7 °F 30.3 in Calm     96 % 0 in 0.0 W/m2 CLR
08:00 31.6 °F 30.6 °F 30.3 in Calm     96 % 0 in 0.0 W/m2 CLR
08:05 31.6 °F 30.6 °F 30.3 in Calm     96 % 0 in 0.0 W/m2 CLR
08:10 31.6 °F 30.6 °F 30.3 in Calm     96 % 0 in 0.0 W/m2 CLR
08:15 31.5 °F 30.6 °F 30.3 in Calm     96 % 0 in 0.0 W/m2 CLR
08:20 31.5 °F 30.6 °F 30.3 in Calm     96 % 0 in 0.0 W/m2 CLR
08:25 31.5 °F 30.6 °F 30.3 in Calm     96 % 0 in 0.0 W/m2 OVC
08:31 31.5 °F 30.6 °F 30.3 in Calm     96 % 0 in 0.0 W/m2 OVC
08:36 31.3 °F 30.4 °F 30.3 in Calm     96 % 0 in 5.0 W/m2 BKN
08:41 31.3 °F 30.2 °F 30.3 in Calm     96 % 0 in 5.0 W/m2 OVC
08:46 31.3 °F 30.2 °F 30.3 in Calm     96 % 0 in 7.0 W/m2 BKN
08:51 31.1 °F 30 °F 30.3 in Calm     96 % 0 in 7.0 W/m2 BKN
08:56 31.3 °F 30.2 °F 30.3 in Calm     96 % 0 in 9.0 W/m2 BKN
09:01 31.1 °F 30 °F 30.3 in Calm     96 % 0 in 12.0 W/m2 BKN
09:06 31.1 °F 30 °F 30.3 in Calm     96 % 0 in 12.0 W/m2 BKN
09:11 30.9 °F 30 °F 30.3 in Calm     96 % 0 in 16.0 W/m2 BKN
09:16 30.9 °F 29.8 °F 30.3 in Calm     96 % 0 in 21.0 W/m2 BKN
09:21 30.9 °F 29.8 °F 30.3 in Calm     96 % 0 in 25.0 W/m2 BKN
09:26 30.9 °F 29.8 °F 30.3 in Calm     96 % 0 in 21.0 W/m2 BKN
09:31 30.9 °F 30 °F 30.3 in Calm     96 % 0 in 25.0 W/m2 BKN
09:36 31.1 °F 30 °F 30.3 in Calm     96 % 0 in 30.0 W/m2 BKN
09:41 31.1 °F 30 °F 30.3 in Calm     96 % 0 in 28.0 W/m2 BKN
09:46 31.1 °F 30 °F 30.3 in Calm     96 % 0 in 30.0 W/m2 BKN
09:51 31.1 °F 30 °F 30.3 in Calm     96 % 0 in 37.0 W/m2 BKN
09:56 31.1 °F 30 °F 30.3 in Calm     96 % 0 in 42.0 W/m2 BKN
10:01 31.3 °F 30.2 °F 30.3 in Calm     96 % 0 in 37.0 W/m2 BKN
10:06 31.3 °F 30.2 °F 30.3 in Calm     96 % 0 in 49.0 W/m2 BKN
10:11 31.3 °F 30.4 °F 30.3 in Calm     96 % 0 in 46.0 W/m2 BKN
10:16 31.3 °F 30.4 °F 30.3 in Calm     96 % 0 in 49.0 W/m2 BKN
10:21 31.5 °F 30.4 °F 30.3 in Calm     96 % 0 in 49.0 W/m2 BKN
10:26 31.5 °F 30.4 °F 30.3 in Calm     96 % 0 in 51.0 W/m2 BKN
10:31 31.5 °F 30.6 °F 30.3 in Calm     96 % 0 in 58.0 W/m2 BKN
10:36 31.5 °F 30.6 °F 30.3 in Calm     96 % 0 in 62.0 W/m2 BKN
10:41 31.5 °F 30.6 °F 30.4 in Calm     96 % 0 in 58.0 W/m2 BKN
10:46 31.5 °F 30.6 °F 30.3 in Calm     96 % 0 in 60.0 W/m2 BKN
10:51 31.5 °F 30.6 °F 30.3 in Calm     96 % 0 in 65.0 W/m2 BKN
10:56 31.6 °F 30.6 °F 30.4 in Calm     96 % 0 in 65.0 W/m2 BKN
11:01 31.6 °F 30.6 °F 30.4 in Calm     96 % 0 in 74.0 W/m2 BKN
11:06 31.6 °F 30.7 °F 30.4 in Calm     96 % 0 in 76.0 W/m2 BKN
11:11 31.6 °F 30.7 °F 30.4 in Calm     96 % 0 in 83.0 W/m2 BKN
11:16 31.8 °F 30.9 °F 30.4 in Calm     96 % 0 in 76.0 W/m2 BKN
11:21 32 °F 30.9 °F 30.4 in Calm     96 % 0 in 83.0 W/m2 BKN
11:26 32.2 °F 31.1 °F 30.4 in Calm     96 % 0 in 86.0 W/m2 BKN
11:31 32.2 °F 31.3 °F 30.4 in Calm     96 % 0 in 86.0 W/m2 BKN
11:36 32.4 °F 31.3 °F 30.4 in Calm     96 % 0 in 84.0 W/m2 BKN
11:41 32.4 °F 31.5 °F 30.4 in Calm     96 % 0 in 72.0 W/m2 BKN
11:46 32.4 °F 31.5 °F 30.4 in Calm     96 % 0 in 70.0 W/m2 BKN
11:51 32.5 °F 31.5 °F 30.4 in Calm     96 % 0.01 in 70.0 W/m2 RA
11:56 32.5 °F 31.5 °F 30.4 in Calm     96 % 0.01 in 69.0 W/m2 BKN
12:01 32.5 °F 31.6 °F 30.4 in Calm     96 % 0.01 in 79.0 W/m2 BKN
12:06 32.5 °F 31.6 °F 30.4 in Calm     96 % 0.01 in 91.0 W/m2 BKN
12:07 32.5 °F 31.6 °F 30.4 in Calm     96 % 0.01 in 91.0 W/m2 BKN
12:12 32.5 °F 31.6 °F 30.3 in Calm     96 % 0.01 in 100.0 W/m2 BKN
12:17 32.7 °F 31.6 °F 30.3 in Calm     96 % 0.01 in 114.0 W/m2 BKN
12:22 32.7 °F 31.6 °F 30.3 in Calm     96 % 0.01 in 97.0 W/m2 BKN
12:27 32.7 °F 31.6 °F 30.3 in Calm     96 % 0.01 in 102.0 W/m2 BKN
12:32 32.7 °F 31.8 °F 30.3 in Calm     96 % 0.01 in 102.0 W/m2 BKN
12:37 32.7 °F 31.8 °F 30.3 in Calm     96 % 0.01 in 97.0 W/m2 BKN
12:42 32.9 °F 31.8 °F 30.3 in Calm     96 % 0.01 in 97.0 W/m2 BKN
12:47 33.1 °F 32 °F 30.3 in Calm     96 % 0.01 in 100.0 W/m2 BKN
12:52 33.1 °F 32.2 °F 30.3 in Calm     96 % 0 in 97.0 W/m2 BKN
12:57 33.3 °F 32.4 °F 30.3 in Calm     96 % 0 in 116.0 W/m2 BKN
13:02 33.4 °F 32.5 °F 30.3 in Calm     96 % 0 in 102.0 W/m2 BKN
13:07 33.6 °F 32.7 °F 30.3 in Calm     96 % 0 in 84.0 W/m2 BKN
13:12 33.8 °F 32.7 °F 30.3 in Calm     96 % 0 in 81.0 W/m2 BKN
13:17 33.6 °F 32.7 °F 30.3 in Calm     96 % 0 in 81.0 W/m2 BKN
13:22 33.6 °F 32.5 °F 30.3 in Calm     96 % 0 in 93.0 W/m2 BKN
13:27 33.4 °F 32.5 °F 30.3 in Calm     96 % 0 in 86.0 W/m2 BKN
13:32 33.4 °F 32.5 °F 30.3 in Calm     96 % 0 in 86.0 W/m2 BKN
13:37 33.4 °F 32.5 °F 30.3 in Calm     96 % 0 in 91.0 W/m2 BKN
13:42 33.6 °F 32.5 °F 30.3 in Calm     96 % 0 in 95.0 W/m2 BKN
13:47 33.4 °F 32.5 °F 30.3 in Calm     96 % 0 in 95.0 W/m2 BKN
13:52 33.4 °F 32.4 °F 30.3 in Calm     96 % 0 in 93.0 W/m2 BKN
13:57 33.4 °F 32.4 °F 30.3 in Calm     96 % 0 in 144.0 W/m2 BKN
14:02 33.4 °F 32.5 °F 30.3 in Calm     96 % 0 in 86.0 W/m2 BKN
14:07 33.4 °F 32.5 °F 30.3 in Calm     96 % 0 in 76.0 W/m2 BKN
14:12 33.4 °F 32.4 °F 30.3 in Calm     96 % 0 in 63.0 W/m2 BKN
14:17 33.4 °F 32.4 °F 30.3 in Calm     96 % 0 in 58.0 W/m2 BKN
14:22 33.4 °F 32.5 °F 30.3 in Calm     96 % 0 in 67.0 W/m2 BKN
14:27 33.6 °F 32.5 °F 30.3 in Calm     96 % 0 in 62.0 W/m2 BKN
14:32 33.6 °F 32.5 °F 30.3 in Calm     96 % 0 in 65.0 W/m2 BKN
14:37 33.6 °F 32.5 °F 30.3 in Calm     96 % 0 in 67.0 W/m2 BKN
14:42 33.4 °F 32.4 °F 30.3 in Calm     96 % 0 in 67.0 W/m2 BKN
14:47 33.4 °F 32.5 °F 30.3 in Calm     96 % 0 in 72.0 W/m2 BKN
14:52 33.6 °F 32.7 °F 30.3 in Calm     96 % 0 in 97.0 W/m2 BKN
14:57 33.4 °F 32.5 °F 30.3 in Calm     96 % 0 in 93.0 W/m2 BKN
15:02 33.3 °F 32.4 °F 30.3 in Calm     96 % 0 in 86.0 W/m2 BKN
15:07 33.4 °F 32.4 °F 30.3 in Calm     96 % 0 in 74.0 W/m2 BKN
15:12 33.4 °F 32.5 °F 30.3 in Calm     96 % 0 in 74.0 W/m2 BKN
15:17 33.6 °F 32.5 °F 30.3 in Calm     96 % 0 in 76.0 W/m2 BKN
15:22 33.8 °F 32.7 °F 30.3 in Calm     96 % 0 in 109.0 W/m2 BKN
15:27 33.8 °F 32.7 °F 30.3 in Calm     96 % 0 in 107.0 W/m2 BKN
15:32 33.8 °F 32.7 °F 30.3 in Calm     96 % 0 in 86.0 W/m2 BKN
15:37 34 °F 32.9 °F 30.3 in Calm     96 % 0 in 102.0 W/m2 BKN
15:43 34 °F 32.9 °F 30.3 in Calm     96 % 0 in 56.0 W/m2 BKN
15:48 34 °F 32.9 °F 30.3 in Calm     96 % 0 in 44.0 W/m2 BKN
15:53 33.8 °F 32.7 °F 30.3 in Calm     96 % 0 in 39.0 W/m2 BKN
15:58 33.8 °F 32.7 °F 30.3 in Calm     96 % 0 in 37.0 W/m2 BKN
16:03 34 °F 32.9 °F 30.3 in Calm     96 % 0 in 46.0 W/m2 BKN
16:08 34 °F 32.9 °F 30.3 in Calm     96 % 0 in 53.0 W/m2 BKN
16:13 33.8 °F 32.7 °F 30.3 in Calm     96 % 0 in 62.0 W/m2 BKN
16:18 33.8 °F 32.7 °F 30.3 in Calm     96 % 0 in 49.0 W/m2 BKN
16:23 33.8 °F 32.7 °F 30.3 in Calm     96 % 0 in 39.0 W/m2 BKN
16:28 33.8 °F 32.7 °F 30.3 in Calm     96 % 0 in 32.0 W/m2 BKN
16:33 33.8 °F 32.7 °F 30.3 in Calm     96 % 0 in 28.0 W/m2 BKN
16:38 33.8 °F 32.7 °F 30.3 in Calm     96 % 0 in 28.0 W/m2 BKN
16:43 34 °F 32.9 °F 30.3 in Calm     96 % 0 in 30.0 W/m2 SCT
16:48 34 °F 32.9 °F 30.3 in Calm     96 % 0 in 26.0 W/m2 CLR
16:53 33.8 °F 32.7 °F 30.3 in Calm     96 % 0 in 23.0 W/m2 CLR
16:58 33.8 °F 32.7 °F 30.3 in Calm     96 % 0 in 21.0 W/m2 OVC
17:03 34 °F 32.9 °F 30.3 in Calm     96 % 0 in 18.0 W/m2 OVC
17:08 34 °F 33.1 °F 30.3 in Calm     96 % 0 in 12.0 W/m2 OVC
17:13 34 °F 32.9 °F 30.3 in Calm     96 % 0 in 12.0 W/m2 OVC
17:18 33.8 °F 32.7 °F 30.3 in Calm     96 % 0 in 9.0 W/m2 OVC
17:23 33.6 °F 32.4 °F 30.3 in Calm     95 % 0 in 7.0 W/m2 OVC
17:28 33.8 °F 32.7 °F 30.3 in Calm     96 % 0 in 5.0 W/m2 OVC
17:33 33.6 °F 32.7 °F 30.3 in Calm     96 % 0 in 0.0 W/m2 OVC
17:38 33.6 °F 32.4 °F 30.3 in Calm     95 % 0 in 0.0 W/m2 OVC
17:43 33.6 °F 32.4 °F 30.3 in Calm     95 % 0 in 0.0 W/m2 OVC
17:48 33.6 °F 32.4 °F 30.3 in Calm     95 % 0 in 0.0 W/m2 CLR
17:53 33.6 °F 32.4 °F 30.3 in Calm     95 % 0 in 0.0 W/m2 CLR
17:58 33.6 °F 32.4 °F 30.3 in Calm     95 % 0 in 0.0 W/m2 CLR
18:03 33.6 °F 32.4 °F 30.3 in Calm     95 % 0 in 0.0 W/m2 CLR
18:08 33.6 °F 32.4 °F 30.3 in Calm     95 % 0 in 0.0 W/m2 CLR
18:13 33.6 °F 32.4 °F 30.3 in Calm     95 % 0 in 0.0 W/m2 CLR
18:18 33.6 °F 32.4 °F 30.3 in Calm     95 % 0 in 0.0 W/m2 CLR
18:23 33.6 °F 32.4 °F 30.3 in Calm     95 % 0 in 0.0 W/m2 CLR
18:28 33.6 °F 32.4 °F 30.3 in Calm     95 % 0 in 0.0 W/m2 CLR
18:33 33.6 °F 32.4 °F 30.3 in Calm     95 % 0 in 0.0 W/m2 CLR
18:38 33.6 °F 32.4 °F 30.3 in Calm     95 % 0 in 0.0 W/m2 CLR
18:43 33.4 °F 32.2 °F 30.3 in Calm     95 % 0 in 0.0 W/m2 CLR
18:48 33.4 °F 32.2 °F 30.3 in Calm     95 % 0 in 0.0 W/m2 CLR
18:53 33.4 °F 32.2 °F 30.3 in Calm     95 % 0 in 0.0 W/m2 CLR
18:58 33.4 °F 32.2 °F 30.3 in Calm     95 % 0 in 0.0 W/m2 CLR
19:03 33.4 °F 32.2 °F 30.3 in Calm     95 % 0 in 0.0 W/m2 CLR
19:08 33.3 °F 32 °F 30.3 in Calm     95 % 0 in 0.0 W/m2 CLR
19:13 33.3 °F 31.8 °F 30.3 in Calm     95 % 0 in 0.0 W/m2 CLR
19:18 33.1 °F 31.8 °F 30.3 in Calm     95 % 0 in 0.0 W/m2 CLR
19:23 33.1 °F 31.6 °F 30.3 in Calm     95 % 0 in 0.0 W/m2 CLR
19:28 32.9 °F 31.6 °F 30.3 in Calm     95 % 0 in 0.0 W/m2 CLR
19:33 32.7 °F 31.5 °F 30.3 in Calm     95 % 0 in 0.0 W/m2 CLR
19:38 32.7 °F 31.5 °F 30.3 in Calm     95 % 0 in 0.0 W/m2 CLR
19:43 32.7 °F 31.5 °F 30.3 in Calm     95 % 0 in 0.0 W/m2 CLR
19:48 32.7 °F 31.5 °F 30.3 in Calm     95 % 0 in 0.0 W/m2 CLR
19:53 32.5 °F 31.3 °F 30.3 in Calm     95 % 0 in 0.0 W/m2 CLR
19:58 32.5 °F 31.3 °F 30.3 in Calm     95 % 0 in 0.0 W/m2 CLR
20:03 32.5 °F 31.3 °F 30.3 in Calm     95 % 0 in 0.0 W/m2 CLR
20:08 32.4 °F 31.1 °F 30.3 in Calm     95 % 0 in 0.0 W/m2 CLR
20:18 32.2 °F 30.9 °F 30.3 in Calm     95 % 0 in 0.0 W/m2 CLR
20:23 32.2 °F 30.7 °F 30.3 in Calm     95 % 0 in 0.0 W/m2 CLR
20:28 32.2 °F 30.7 °F 30.3 in Calm     95 % 0 in 0.0 W/m2 CLR
20:33 32.2 °F 30.7 °F 30.3 in Calm     95 % 0 in 0.0 W/m2 CLR
20:38 32.2 °F 30.7 °F 30.3 in Calm     95 % 0 in 0.0 W/m2 CLR
20:43 32 °F 30.7 °F 30.3 in Calm     95 % 0 in 0.0 W/m2 CLR
20:48 32 °F 30.7 °F 30.3 in Calm     95 % 0 in 0.0 W/m2 CLR
20:53 32 °F 30.7 °F 30.3 in Calm     95 % 0 in 0.0 W/m2 CLR
20:58 32 °F 30.7 °F 30.3 in Calm     95 % 0 in 0.0 W/m2 CLR
21:03 32 °F 30.7 °F 30.3 in Calm     95 % 0 in 0.0 W/m2 CLR
21:08 32 °F 30.7 °F 30.3 in Calm     95 % 0 in 0.0 W/m2 CLR
21:13 31.8 °F 30.6 °F 30.3 in Calm     95 % 0 in 0.0 W/m2 CLR
21:18 32 °F 30.7 °F 30.3 in Calm     95 % 0 in 0.0 W/m2 CLR
21:23 32 °F 30.7 °F 30.3 in Calm     95 % 0 in 0.0 W/m2 CLR
21:28 32 °F 30.7 °F 30.3 in Calm     95 % 0 in 0.0 W/m2 CLR
21:33 32 °F 30.7 °F 30.3 in Calm     95 % 0 in 0.0 W/m2 CLR
21:38 32.2 °F 30.7 °F 30.3 in Calm     95 % 0 in 0.0 W/m2 CLR
21:43 32 °F 30.7 °F 30.3 in Calm     95 % 0 in 0.0 W/m2 CLR
21:48 32 °F 30.7 °F 30.3 in Calm     95 % 0 in 0.0 W/m2 CLR
21:54 32 °F 30.7 °F 30.3 in Calm     95 % 0 in 0.0 W/m2 CLR
21:59 31.8 °F 30.6 °F 30.3 in Calm     95 % 0 in 0.0 W/m2 CLR
22:04 31.8 °F 30.6 °F 30.3 in Calm     95 % 0 in 0.0 W/m2 CLR
22:09 31.8 °F 30.6 °F 30.3 in Calm     95 % 0 in 0.0 W/m2 CLR
22:14 31.8 °F 30.6 °F 30.3 in Calm     95 % 0 in 0.0 W/m2 CLR
22:19 31.8 °F 30.6 °F 30.3 in Calm     95 % 0 in 0.0 W/m2 CLR
22:24 32 °F 30.7 °F 30.3 in Calm     95 % 0 in 0.0 W/m2 CLR
22:29 32 °F 30.7 °F 30.3 in Calm     95 % 0 in 0.0 W/m2 CLR
22:34 32 °F 30.7 °F 30.3 in Calm     95 % 0 in 0.0 W/m2 CLR
22:39 32 °F 30.7 °F 30.3 in Calm     95 % 0 in 0.0 W/m2 CLR
22:44 32 °F 30.7 °F 30.3 in Calm     95 % 0 in 0.0 W/m2 CLR
22:49 32 °F 30.7 °F 30.3 in Calm     95 % 0 in 0.0 W/m2 CLR
22:54 32 °F 30.7 °F 30.3 in Calm     95 % 0 in 0.0 W/m2 CLR
22:59 32 °F 30.7 °F 30.3 in Calm     95 % 0 in 0.0 W/m2 CLR
23:04 32.2 °F 30.7 °F 30.3 in Calm     95 % 0 in 0.0 W/m2 CLR
23:09 32.2 °F 30.7 °F 30.3 in Calm     95 % 0 in 0.0 W/m2 CLR
23:14 32.2 °F 30.7 °F 30.3 in Calm     95 % 0 in 0.0 W/m2 CLR
23:19 32.2 °F 30.7 °F 30.3 in Calm     95 % 0 in 0.0 W/m2 CLR
23:24 32.2 °F 30.7 °F 30.3 in Calm     95 % 0 in 0.0 W/m2 CLR
23:29 32.2 °F 30.7 °F 30.3 in Calm     95 % 0 in 0.0 W/m2 CLR
23:34 32.2 °F 30.7 °F 30.3 in Calm     95 % 0 in 0.0 W/m2 CLR
23:39 32.2 °F 30.7 °F 30.3 in Calm     95 % 0 in 0.0 W/m2 CLR
23:44 32.2 °F 30.7 °F 30.3 in Calm     95 % 0 in 0.0 W/m2 CLR
23:49 32.2 °F 30.7 °F 30.3 in Calm     95 % 0 in 0.0 W/m2 CLR
23:54 32.2 °F 30.7 °F 30.3 in Calm     95 % 0 in 0.0 W/m2 CLR
23:59 32 °F 30.7 °F 30.3 in Calm     95 % 0 in 0.0 W/m2 CLR
Lo Temps de Massalio
Compliments of Weather Underground - 1.25 mb